Location: *
(2.5500°S, 65.9667°W)
Time: 14:43:45
(UTC+00:00)

Cosmos 2084 - Pass Details

Date: 24 May 2022
Orbit: 506 x 671 km, 62.8° (Epoch: 30 June)

Event Time Altitude Azimuth Distance (km) Brightness Sun altitude
Rises 23:04:26 0° 305° (NW) 2,908 8.8 -11.1°
Reaches altitude 10° 23:07:24 10° 284° (WNW) 2,033 7.7 -11.8°
Maximum altitude 23:10:23 17° 244° (WSW) 1,646 6.3 -12.5°
Drops below altitude 10° 23:13:26 10° 204° (SSW) 2,082 6.3 -13.2°
Sets 23:16:32 0° 184° (S) 3,010 6.9 -13.9°
